Location: Biltmore Gardens
(41.6070°N, 83.4666°W)
Time: 04:09:14
(UTC+00:00)

A-11 Canister half - Pass Details

Date: 25 April 2021
Orbit: 1526 x 1683 km, 47.3° (Epoch: 11 May)

Event Time Altitude Azimuth Distance (km) Brightness Sun altitude
Rises 02:03:22 0° 297° (WNW) 4,937 13.3 -17.2°
Reaches altitude 10° 02:06:37 10° 294° (WNW) 3,949 12.3 -17.6°
Maximum altitude 02:16:22 54° 221° (SW) 1,961 9.5 -19.1°
Enters shadow 02:22:36 24° 155° (SSE) 2,936 9.9 -20.0°
